H1 CPF  2  DGF 2024 09 25 10 269 01 etalon1    NONE      
H2  8900103  525    19751 2024 09 25 00 00 00 2024 10 02 00 00 00   120 1 1  0 0 0 1
H5  0.5673
H9
10 0 60578  72000.000000  0      14239692.753     -16216464.626      13548310.963
10 0 60578  72120.000000  0      14418619.536     -16344601.491      13198796.569
10 0 60578  72240.000000  0      14591416.973     -16471396.972      12844702.014
10 0 60578  72360.000000  0      14758062.468     -16596708.642      12486149.643
10 0 60578  72480.000000  0      14918537.571     -16720394.108      12123263.387
10 0 60578  72600.000000  0      15072827.985     -16842311.129      11756168.711
10 0 60578  72720.000000  0      15220923.569     -16962317.725      11384992.577
10 0 60578  72840.000000  0      15362818.329     -17080272.288      11009863.397
10 0 60578  72960.000000  0      15498510.423     -17196033.697      10630910.991
10 0 60578  73080.000000  0      15628002.145     -17309461.424      10248266.540
10 0 60578  73200.000000  0      15751299.918     -17420415.650       9862062.542
10 0 60578  73320.000000  0      15868414.280     -17528757.374       9472432.765
10 0 60578  73440.000000  0      15979359.868     -17634348.522       9079512.202
10 0 60578  73560.000000  0      16084155.393     -17737052.058       8683437.020
10 0 60578  73680.000000  0      16182823.624     -17836732.093       8284344.518
10 0 60578  73800.000000  0      16275391.354     -17933253.993       7882373.077
10 0 60578  73920.000000  0      16361889.379     -18026484.486       7477662.110
10 0 60578  74040.000000  0      16442352.461     -18116291.768       7070352.015
10 0 60578  74160.000000  0      16516819.292     -18202545.612       6660584.126
10 0 60578  74280.000000  0      16585332.460     -18285117.468       6248500.662
10 0 60578  74400.000000  0      16647938.404     -18363880.569       5834244.679
10 0 60578  74520.000000  0      16704687.376     -18438710.033       5417960.019
10 0 60578  74640.000000  0      16755633.387     -18509482.963       4999791.259
10 0 60578  74760.000000  0      16800834.163     -18576078.547       4579883.662
10 0 60578  74880.000000  0      16840351.091     -18638378.156       4158383.121
10 0 60578  75000.000000  0      16874249.164     -18696265.441       3735436.116
10 0 60578  75120.000000  0      16902596.924     -18749626.428       3311189.654
10 0 60578  75240.000000  0      16925466.401     -18798349.607       2885791.222
10 0 60578  75360.000000  0      16942933.052     -18842326.032       2459388.733
10 0 60578  75480.000000  0      16955075.692     -18881449.403       2032130.476
10 0 60578  75600.000000  0      16961976.430     -18915616.155       1604165.061
10 0 60578  75720.000000  0      16963720.597     -18944725.549       1175641.366
10 0 60578  75840.000000  0      16960396.674     -18968679.749        746708.488
10 0 60578  75960.000000  0      16952096.214     -18987383.906        317515.687
10 0 60578  76080.000000  0      16938913.770     -19000746.240       -111787.666
10 0 60578  76200.000000  0      16920946.810     -19008678.115       -541052.142
10 0 60578  76320.000000  0      16898295.639     -19011094.113       -970128.306
10 0 60578  76440.000000  0      16871063.314     -19007912.107      -1398866.773
10 0 60578  76560.000000  0      16839355.558     -18999053.336      -1827118.256
10 0 60578  76680.000000  0      16803280.672     -18984442.463      -2254733.625
10 0 60578  76800.000000  0      16762949.445     -18964007.650      -2681563.956
10 0 60578  76920.000000  0      16718475.064     -18937680.616      -3107460.584
10 0 60578  77040.000000  0      16669973.020     -18905396.695      -3532275.157
10 0 60578  77160.000000  0      16617561.012     -18867094.900      -3955859.690
10 0 60578  77280.000000  0      16561358.851     -18822717.970      -4378066.615
10 0 60578  77400.000000  0      16501488.361     -18772212.428      -4798748.836
10 0 60578  77520.000000  0      16438073.284     -18715528.626      -5217759.779
10 0 60578  77640.000000  0      16371239.170     -18652620.795      -5634953.446
10 0 60578  77760.000000  0      16301113.285     -18583447.085      -6050184.465
10 0 60578  77880.000000  0      16227824.499     -18507969.606      -6463308.145
10 0 60578  78000.000000  0      16151503.187     -18426154.469      -6874180.525
10 0 60578  78120.000000  0      16072281.120     -18337971.817      -7282658.426
10 0 60578  78240.000000  0      15990291.360     -18243395.858      -7688599.501
10 0 60578  78360.000000  0      15905668.149     -18142404.892      -8091862.288
10 0 60578  78480.000000  0      15818546.808     -18034981.340      -8492306.259
10 0 60578  78600.000000  0      15729063.617     -17921111.763      -8889791.869
10 0 60578  78720.000000  0      15637355.717     -17800786.884      -9284180.607
10 0 60578  78840.000000  0      15543560.990     -17674001.603      -9675335.047
10 0 60578  78960.000000  0      15447817.952     -17540755.009     -10063118.892
10 0 60578  79080.000000  0      15350265.642     -17401050.394     -10447397.029
10 0 60578  79200.000000  0      15251043.511     -17254895.254     -10828035.571
10 0 60578  79320.000000  0      15150291.308     -17102301.301     -11204901.907
10 0 60578  79440.000000  0      15048148.968     -16943284.454     -11577864.753
10 0 60578  79560.000000  0      14944756.502     -16777864.844     -11946794.191
10 0 60578  79680.000000  0      14840253.885     -16606066.806     -12311561.721
10 0 60578  79800.000000  0      14734780.942     -16427918.870     -12672040.307
10 0 60578  79920.000000  0      14628477.237     -16243453.748     -13028104.416
10 0 60578  80040.000000  0      14521481.964     -16052708.321     -13379630.069
10 0 60578  80160.000000  0      14413933.834     -15855723.621     -13726494.884
10 0 60578  80280.000000  0      14305970.963     -15652544.807     -14068578.114
10 0 60578  80400.000000  0      14197730.765     -15443221.144     -14405760.698
10 0 60578  80520.000000  0      14089349.843     -15227805.975     -14737925.296
10 0 60578  80640.000000  0      13980963.878     -15006356.687     -15064956.335
10 0 60578  80760.000000  0      13872707.520     -14778934.682     -15386740.047
10 0 60578  80880.000000  0      13764714.288     -14545605.340     -15703164.511
10 0 60578  81000.000000  0      13657116.456     -14306437.978     -16014119.693
10 0 60578  81120.000000  0      13550044.953     -14061505.806     -16319497.482
10 0 60578  81240.000000  0      13443629.258     -13810885.887     -16619191.731
10 0 60578  81360.000000  0      13337997.299     -13554659.085     -16913098.294
10 0 60578  81480.000000  0      13233275.348     -13292910.014     -17201115.059
10 0 60578  81600.000000  0      13129587.925     -13025726.987     -17483141.989
10 0 60578  81720.000000  0      13027057.700     -12753201.956     -17759081.156
10 0 60578  81840.000000  0      12925805.391     -12475430.455     -18028836.770
10 0 60578  81960.000000  0      12825949.675     -12192511.538     -18292315.221
10 0 60578  82080.000000  0      12727607.091     -11904547.715     -18549425.104
10 0 60578  82200.000000  0      12630891.950     -11611644.883     -18800077.256
10 0 60578  82320.000000  0      12535916.243     -11313912.258     -19044184.785
10 0 60578  82440.000000  0      12442789.554     -11011462.302     -19281663.101
10 0 60578  82560.000000  0      12351618.974     -10704410.650     -19512429.943
10 0 60578  82680.000000  0      12262509.018     -10392876.033     -19736405.412
10 0 60578  82800.000000  0      12175561.541     -10076980.196     -19953511.994
10 0 60578  82920.000000  0      12090875.657      -9756847.820     -20163674.591
10 0 60578  83040.000000  0      12008547.666      -9432606.438     -20366820.542
10 0 60578  83160.000000  0      11928670.975      -9104386.349     -20562879.652
10 0 60578  83280.000000  0      11851336.024      -8772320.530     -20751784.217
10 0 60578  83400.000000  0      11776630.219      -8436544.545     -20933469.041
10 0 60578  83520.000000  0      11704637.862      -8097196.456     -21107871.466
10 0 60578  83640.000000  0      11635440.082      -7754416.731     -21274931.386
10 0 60578  83760.000000  0      11569114.777      -7408348.143     -21434591.274
10 0 60578  83880.000000  0      11505736.550      -7059135.680     -21586796.197
10 0 60578  84000.000000  0      11445376.652      -6706926.440     -21731493.835
10 0 60578  84120.000000  0      11388102.927      -6351869.537     -21868634.502
10 0 60578  84240.000000  0      11333979.757      -5994115.996     -21998171.159
10 0 60578  84360.000000  0      11283068.015      -5633818.651     -22120059.428
10 0 60578  84480.000000  0      11235425.017      -5271132.041     -22234257.614
10 0 60578  84600.000000  0      11191104.475      -4906212.305     -22340726.711
10 0 60578  84720.000000  0      11150156.459      -4539217.074     -22439430.419
10 0 60578  84840.000000  0      11112627.358      -4170305.365     -22530335.154
10 0 60578  84960.000000  0      11078559.841      -3799637.471     -22613410.059
10 0 60578  85080.000000  0      11047992.828      -3427374.854     -22688627.017
10 0 60578  85200.000000  0      11020961.458      -3053680.031     -22755960.652
10 0 60578  85320.000000  0      10997497.063      -2678716.464     -22815388.347
10 0 60578  85440.000000  0      10977627.144      -2302648.452     -22866890.241
10 0 60578  85560.000000  0      10961375.348      -1925641.014     -22910449.244
10 0 60578  85680.000000  0      10948761.456      -1547859.776     -22946051.034
10 0 60578  85800.000000  0      10939801.361      -1169470.862     -22973684.066
10 0 60578  85920.000000  0      10934507.060       -790640.778     -22993339.572
10 0 60578  86040.000000  0      10932886.648       -411536.296     -23005011.565
10 0 60578  86160.000000  0      10934944.305        -32324.343     -23008696.838
10 0 60578  86280.000000  0      10940680.301        346828.112     -23004394.967
99